Temperature
17 17 17 17 17 17 16 16 16 16 15 15 15 15 15 14 14 14 14 14 14 13 13 13 12 12 12 12 12 12 12 12 12 12 12 12 12 12 12 12 12 12 12
16 16 16 16 16 16 16 16 15 15 15 15 14 14 14 14 14 14 14 13 13 13 13 12 12 12 12 12 12 12 12 12 11 11 11 11 11 11 12 12 11 11 11
15 15 16 16 16 15 15 15 15 15 14 14 14 14 14 14 13 13 13 13 13 13 13 12 12 12 12 12 12 12 11 11 11 11 11 11 11 11 11 11 11 11 11
15 15 15 15 15 15 15 14 14 14 14 14 14 14 13 13 13 13 13 13 13 13 13 12 12 12 12 12 11 11 11 11 11 11 11 11 11 10 10 11 11 11 11
14 14 14 14 14 14 14 14 14 14 14 13 13 13 13 13 13 13 13 13 13 13 12 12 12 11 11 11 11 11 11 11 11 11 11 10 10 10 10 10 10 10 10
14 14 14 14 14 14 14 14 13 13 13 13 13 13 13 13 13 13 13 13 13 12 12 12 11 11 11 11 11 11 11 11 11 11 10 10 10 10 10 10 10 10 10
14 14 14 14 14 14 14 13 13 13 13 13 13 13 13 13 13 13 13 13 13 12 12 12 11 11 11 11 10 10 10 10 10 10 10 10 10 10 10 9 9 9 9
14 14 14 14 14 14 14 13 13 13 13 13 12 12 12 12 12 12 13 12 12 12 11 11 11 11 10 10 10 10 10 10 10 10 10 10 10 10 9 9 9 9 9
14 14 14 14 14 14 14 13 13 13 13 13 12 11 11 11 11 11 11 11 11 11 11 11 10 10 10 10 10 9 9 9 9 9 9 9 9 9 9 9 9 9 9
14 14 14 14 14 14 14 14 13 13 13 13 12 12 11 10 10 10 10 10 10 10 10 10 10 10 9 9 9 9 9 9 9 9 9 8 8 9 9 9 9 9 8
14 14 14 14 14 14 13 13 13 13 12 12 12 11 11 10 10 9 9 10 10 10 9 9 9 9 9 9 8 8 8 8 8 8 8 8 8 8 8 8 8 8 8
14 14 14 14 14 13 13 13 13 12 12 12 11 11 10 9 9 9 8 9 9 9 9 9 9 8 8 8 8 7 7 7 7 7 7 7 7 7 8 8 8 8 8
14 14 14 13 13 13 13 12 12 12 11 11 10 10 9 9 8 8 8 8 8 8 8 8 8 8 8 7 7 7 7 7 6 6 6 6 7 7 7 7 7 7 7
13 13 13 13 13 13 12 12 11 11 11 10 9 9 9 8 8 8 7 7 7 7 7 7 7 7 7 7 6 6 6 6 6 6 6 6 6 6 6 6 7 7 7
13 13 13 12 12 12 11 11 11 10 10 9 9 8 8 8 7 7 7 6 6 6 6 6 6 6 6 6 6 5 5 5 5 5 5 5 5 5 6 6 6 6 6
12 12 12 12 11 11 10 10 10 9 9 8 8 7 7 7 6 6 6 6 6 6 6 5 5 5 5 5 5 5 4 4 4 4 4 4 4 5 5 5 5 5 6
11 11 11 11 10 10 10 9 9 8 8 7 7 6 6 6 6 6 5 5 5 5 5 5 5 5 4 4 4 4 4 4 4 4 4 4 4 4 4 4 4 4 5
10 10 10 10 9 9 8 8 7 7 7 6 6 5 5 5 5 5 5 5 4 4 4 4 4 4 4 4 3 3 3 3 3 3 3 3 3 3 3 3 3 4 4
9 9 9 8 8 8 7 7 7 6 6 5 5 5 4 4 4 4 4 4 4 4 4 4 4 3 3 3 3 3 2 2 2 2 2 2 2 2 3 3 3 3 3
9 8 8 7 7 7 6 6 5 5 5 4 4 3 3 3 3 3 3 3 3 3 3 3 3 3 3 2 2 2 2 1 2 1 1 1 2 2 2 2 2 2 2
8 7 7 7 6 6 5 5 4 4 4 3 3 3 2 2 2 2 2 3 3 3 2 2 2 2 2 2 1 1 1 1 1 1 1 1 1 1 1 1 1 1 1
7 6 6 5 5 4 4 3 3 3 3 2 2 2 2 2 2 2 2 2 2 2 2 2 2 2 2 1 1 1 1 1 0 0 0 0 0 0 0 0 1 1 1
6 5 5 4 4 3 2 2 2 2 1 1 1 1 1 1 1 1 1 2 2 2 2 1 1 1 1 1 0 0 -0 -0 -0 -0 -0 -0 -0 -0 -0 -0 -0 -0 0
5 4 4 3 3 2 1 1 1 1 1 0 0 1 1 1 1 1 1 1 1 1 1 1 1 1 0 0 -0 -0 -0 -1 -1 -1 -1 -1 -1 -1 -1 -1 -1 -1 -1
4 4 3 2 2 1 1 0 0 0 0 0 0 0 0 0 0 1 1 1 1 1 1 1 0 0 -0 -0 -1 -1 -1 -1 -1 -1 -1 -1 -1 -1 -1 -1 -1 -1 -2
3 3 2 1 1 0 0 0 -0 0 0 0 0 0 0 0 0 0 0 0 0 0 0 -0 -0 -0 -1 -1 -1 -1 -1 -1 -1 -1 -2 -2 -2 -2 -2 -2 -2 -2 -2
Wind_Speed
8 9 9 10 10 10 9 8 8 8 8 8 9 9 9 9 9 10 10 13 15 15 13 11 11 10 10 10 9 8 8 7 6 5 5 4 3 2 2 3 3 4 5
10 8 7 8 9 11 11 10 9 6 6 6 5 7 8 8 9 10 11 12 14 17 16 14 13 12 11 11 11 10 10 10 10 9 8 7 6 5 4 3 3 3 4
12 9 6 5 8 11 10 8 6 5 3 3 3 5 6 7 8 9 11 11 12 14 16 15 14 13 12 11 11 10 10 11 12 12 11 10 9 8 7 6 5 4 4
13 10 5 5 8 7 6 3 3 2 3 3 3 4 4 6 8 10 10 11 12 12 13 15 15 13 10 9 9 9 10 10 12 12 13 13 12 11 10 9 8 7 6
12 9 6 6 6 4 3 2 3 3 3 4 4 5 4 5 6 9 9 11 11 11 11 11 11 10 8 6 7 8 8 8 10 13 14 13 14 14 13 12 11 10 9
12 10 6 6 5 3 2 2 3 3 3 3 4 5 5 6 5 6 7 8 8 8 8 7 6 5 5 4 5 6 7 7 7 9 13 14 14 15 15 15 14 13 12
10 8 4 4 3 3 3 3 3 3 3 2 2 4 5 5 6 5 4 4 4 4 4 5 5 5 3 1 2 4 5 7 7 6 7 10 13 15 16 16 17 16 15
9 8 5 3 3 3 3 2 2 2 2 1 2 2 4 5 4 3 3 2 1 1 2 4 5 5 4 3 2 2 3 5 7 6 6 6 8 11 13 16 17 18 18
8 7 6 4 2 3 3 2 2 3 3 2 2 3 3 4 3 3 3 3 2 2 2 2 3 4 4 4 3 3 3 4 6 7 6 6 7 8 10 12 15 17 18
7 7 6 5 3 2 1 1 1 2 3 3 2 3 4 4 3 3 2 3 4 3 3 2 3 4 4 5 5 4 5 5 6 6 6 7 7 7 7 9 11 15 17
5 6 6 5 3 2 1 1 1 1 2 3 3 2 3 3 5 5 4 2 2 2 3 3 4 5 5 6 6 6 7 7 7 7 7 8 8 7 6 7 7 9 14
3 4 5 5 4 2 2 1 1 1 2 3 3 3 3 3 3 4 5 3 2 0 3 3 4 4 5 6 7 7 8 8 8 8 9 9 9 9 9 8 8 8 9
3 3 3 3 3 2 2 1 0 1 2 3 3 3 3 3 2 3 4 4 3 2 1 2 3 4 5 6 7 8 8 8 9 9 9 9 10 10 9 8 7 6 6
4 4 4 3 3 2 2 1 0 1 2 2 2 2 2 2 2 2 2 3 3 2 2 2 2 4 5 6 6 7 8 8 8 9 10 10 11 11 10 8 6 4 3
5 5 4 3 3 2 2 1 0 1 1 1 2 2 1 1 1 1 2 2 3 4 3 3 2 1 3 5 6 7 7 8 8 9 10 11 12 12 12 10 9 7 4
5 5 4 3 3 2 1 1 1 1 1 1 1 1 0 0 1 1 1 1 2 3 2 2 2 1 3 4 6 6 6 8 8 9 10 11 12 13 13 12 11 10 8
5 5 4 3 3 2 1 1 0 1 1 1 0 1 1 1 1 1 1 1 1 1 2 2 2 2 2 2 3 5 6 7 8 8 9 10 11 11 12 12 12 11 11
5 4 4 3 3 2 2 1 1 1 1 1 1 2 1 2 2 1 1 1 0 1 2 3 2 2 2 2 2 3 4 6 7 8 8 9 9 10 9 10 11 10 10
5 4 4 3 2 2 2 2 1 2 2 2 2 2 2 2 2 1 1 1 1 1 1 3 3 2 1 1 2 2 3 4 5 8 8 8 8 9 9 9 9 10 10
5 4 4 3 3 2 2 2 2 2 3 3 3 3 3 3 2 2 1 1 1 2 2 3 3 2 2 2 2 2 1 2 3 5 7 7 8 8 8 8 8 8 8
5 4 4 3 3 2 2 3 2 3 3 3 3 3 3 3 4 3 2 1 1 2 2 3 2 2 2 2 1 1 1 1 2 3 3 4 6 6 7 7 6 6 6
4 4 4 4 3 2 4 5 4 3 3 4 3 3 3 3 4 5 5 4 3 3 3 3 2 3 2 2 2 1 1 1 1 2 2 3 4 2 4 5 5 5 4
5 4 4 4 4 4 5 5 5 3 3 4 4 3 2 3 4 4 5 7 6 5 3 4 4 4 4 3 4 2 1 1 2 2 1 2 3 2 4 6 5 3 3
5 4 4 5 4 4 6 6 6 3 3 3 4 4 4 3 3 4 4 3 4 4 3 3 4 3 3 4 4 4 3 1 0 2 1 0 2 2 3 6 5 3 3
5 4 4 5 5 5 7 7 6 3 3 3 3 3 4 4 5 6 4 3 2 2 3 5 6 5 5 5 6 4 3 2 0 1 2 1 1 2 3 3 5 6 5
5 5 5 5 6 5 8 9 8 3 3 3 2 3 6 6 6 6 5 4 3 2 1 2 2 3 3 2 3 4 4 3 1 1 1 1 1 2 3 3 3 5 6
Wind_Direction
183 188 198 202 209 214 219 227 238 249 256 259 254 247 250 254 258 256 257 248 240 238 240 241 242 242 242 241 240 236 228 221 215 208 200 189 172 150 127 111 103 97 91
185 188 196 203 213 218 223 225 229 235 246 248 251 249 252 261 265 264 261 258 252 248 247 248 249 250 250 250 248 242 233 227 223 218 213 207 200 192 181 161 147 132 119
185 183 185 195 210 215 216 218 228 233 243 248 257 263 266 270 271 269 266 260 256 254 251 251 252 253 255 257 259 255 242 231 225 222 218 214 210 206 200 190 179 168 157
186 181 182 196 206 205 202 202 211 226 247 257 267 275 274 276 273 270 267 261 256 254 254 252 252 253 256 262 270 271 262 247 232 224 219 218 215 212 208 203 196 190 184
188 182 187 199 201 196 202 205 210 212 241 263 270 273 272 268 268 271 266 262 257 254 252 252 246 244 248 263 279 286 287 275 253 234 225 221 219 216 213 210 205 201 197
190 186 188 197 194 186 206 212 222 227 233 252 273 277 272 269 267 266 266 267 262 255 242 227 218 221 232 251 284 302 307 301 284 256 238 229 225 221 217 214 211 208 204
184 180 180 186 184 193 214 219 220 238 250 241 276 296 292 278 276 276 273 266 261 245 206 186 178 173 174 195 301 318 323 324 314 295 270 247 236 231 225 220 216 212 208
179 180 175 177 178 193 210 216 210 227 249 206 209 286 311 322 317 313 322 311 304 94 121 141 145 146 142 120 82 29 350 338 332 324 296 277 259 245 236 229 222 218 213
168 163 162 163 165 179 197 209 202 206 239 252 205 213 243 267 305 315 352 15 31 51 61 93 114 127 129 118 98 65 24 356 340 333 327 307 283 267 252 241 231 222 216
142 143 141 139 131 140 167 197 178 191 206 241 254 233 227 220 250 296 322 6 27 28 22 48 71 83 100 100 87 66 45 23 3 348 336 325 310 289 273 261 247 231 220
127 129 129 124 121 127 139 151 177 201 212 225 229 241 253 245 230 237 270 289 353 16 21 28 63 68 69 76 73 64 53 38 22 8 359 351 344 330 313 299 278 249 230
124 125 126 123 123 131 145 170 206 227 236 240 235 226 228 237 233 228 246 248 244 334 41 36 50 61 64 69 70 64 54 43 27 16 7 1 352 345 329 311 298 272 244
155 153 134 128 126 127 126 123 165 258 253 250 244 238 234 237 239 237 248 250 231 192 126 53 34 56 64 67 67 62 53 46 34 23 15 11 6 357 344 328 315 290 261
149 142 129 122 116 110 97 75 311 269 261 255 253 248 247 247 245 239 243 239 243 220 177 149 44 48 62 70 74 67 53 47 43 35 29 26 23 17 10 3 355 335 301
130 128 123 115 102 89 70 58 305 282 273 260 254 248 243 260 271 269 259 240 227 229 219 164 140 51 72 76 77 70 58 54 54 48 40 35 31 28 26 25 26 24 19
119 124 122 117 106 87 66 57 289 280 251 251 242 213 153 9 22 352 297 279 251 227 213 139 134 120 77 89 75 71 62 57 51 49 43 37 35 33 30 33 37 36 38
120 122 122 119 111 92 64 66 276 267 210 214 168 135 104 69 53 9 354 350 327 239 207 131 108 103 86 79 66 66 61 56 45 45 45 38 37 36 37 40 42 45 50
122 123 119 116 115 105 89 98 111 102 159 161 134 126 117 100 72 26 24 33 347 311 177 161 129 121 108 103 79 65 52 51 41 38 42 39 39 38 38 40 43 46 51
126 123 125 128 126 124 113 106 116 102 105 115 119 124 120 116 93 54 48 49 359 2 100 137 134 121 105 87 79 58 49 31 34 31 34 33 36 38 41 44 46 50 54
137 140 141 144 146 143 135 127 123 119 111 100 97 105 112 126 132 120 80 50 71 83 94 113 118 110 101 79 88 82 44 22 14 13 19 24 29 35 38 43 48 50 51
152 154 152 153 151 153 160 149 142 148 136 118 100 92 99 115 128 128 119 97 108 113 112 113 121 114 118 111 125 101 87 7 5 8 356 6 12 21 20 25 33 40 45
159 161 168 170 174 184 185 182 172 159 155 148 137 112 94 80 87 88 84 85 108 136 153 148 150 154 159 148 128 116 110 81 298 346 11 347 10 6 355 356 7 26 42
173 176 180 178 180 191 195 193 185 158 160 163 161 158 145 116 93 77 74 62 55 66 122 159 159 171 167 169 148 137 151 173 227 300 9 332 351 339 334 342 347 12 33
180 183 185 183 182 199 200 192 172 145 150 165 172 174 162 152 155 140 115 81 55 43 71 97 137 155 160 156 161 163 163 149 323 353 39 303 333 323 327 339 355 25 32
183 186 184 185 189 204 201 190 171 150 166 181 188 186 177 186 196 167 144 134 97 38 86 113 125 136 145 155 151 122 117 97 128 322 16 73 327 325 321 323 352 13 16
187 186 192 195 197 207 210 205 189 168 183 196 208 212 204 202 206 184 165 167 181 203 153 99 84 82 71 92 140 150 150 142 165 243 316 67 13 8 334 314 330 353 4
Height
1562 1563 1565 1566 1567 1567 1568 1568 1569 1569 1569 1569 1568 1568 1568 1567 1567 1566 1566 1565 1564 1563 1563 1562 1560 1559 1558 1557 1556 1555 1554 1553 1552 1551 1550 1549 1548 1547 1547 1546 1545 1545 1544
1561 1562 1563 1564 1565 1566 1566 1567 1567 1567 1567 1567 1566 1566 1566 1565 1565 1564 1563 1562 1561 1561 1560 1559 1558 1557 1556 1555 1554 1553 1552 1551 1551 1550 1549 1548 1547 1547 1546 1545 1545 1544 1543
1559 1560 1561 1562 1563 1563 1564 1564 1565 1565 1565 1564 1564 1564 1564 1563 1562 1561 1560 1559 1558 1558 1557 1556 1556 1555 1554 1552 1551 1550 1549 1549 1548 1548 1547 1547 1546 1546 1545 1544 1544 1543 1543
1557 1558 1559 1560 1561 1561 1562 1562 1562 1563 1562 1562 1562 1561 1561 1560 1559 1558 1557 1556 1555 1554 1553 1553 1552 1552 1551 1550 1548 1547 1546 1546 1545 1545 1544 1544 1544 1544 1543 1543 1543 1542 1542
1555 1556 1557 1558 1559 1559 1560 1560 1560 1560 1560 1559 1559 1558 1557 1556 1555 1554 1553 1552 1551 1550 1549 1548 1548 1548 1547 1546 1545 1544 1543 1542 1541 1541 1541 1541 1541 1541 1541 1541 1541 1541 1541
1552 1554 1555 1556 1556 1557 1557 1557 1557 1557 1557 1556 1555 1554 1553 1552 1551 1549 1548 1547 1546 1545 1545 1544 1544 1544 1544 1543 1542 1541 1540 1539 1538 1537 1537 1537 1537 1538 1538 1538 1538 1539 1539
1550 1551 1552 1553 1553 1554 1554 1554 1554 1554 1553 1553 1551 1549 1548 1547 1546 1545 1544 1543 1542 1542 1541 1541 1541 1541 1540 1540 1539 1538 1537 1536 1535 1534 1533 1534 1534 1534 1534 1535 1535 1535 1536
1546 1548 1549 1550 1550 1550 1551 1551 1550 1550 1549 1549 1548 1546 1543 1542 1541 1541 1540 1540 1539 1538 1538 1538 1537 1537 1537 1536 1535 1534 1534 1533 1532 1531 1530 1530 1529 1530 1530 1530 1531 1532 1532
1543 1544 1545 1546 1546 1547 1547 1547 1546 1546 1545 1545 1544 1544 1542 1539 1538 1537 1536 1536 1535 1535 1535 1534 1534 1533 1533 1532 1532 1531 1530 1529 1528 1527 1526 1526 1525 1525 1525 1526 1527 1527 1528
1539 1540 1541 1542 1542 1543 1542 1542 1541 1541 1540 1539 1539 1538 1538 1537 1536 1533 1533 1532 1532 1531 1531 1530 1530 1529 1529 1528 1528 1527 1526 1526 1525 1524 1523 1522 1521 1521 1521 1521 1522 1523 1523
1535 1536 1537 1538 1538 1538 1538 1537 1537 1536 1535 1534 1534 1533 1532 1532 1531 1531 1528 1528 1528 1527 1527 1526 1526 1525 1525 1524 1524 1523 1522 1522 1521 1520 1519 1518 1518 1517 1517 1517 1517 1518 1519
1531 1532 1533 1533 1533 1533 1533 1532 1532 1531 1530 1529 1528 1527 1527 1527 1526 1525 1524 1524 1523 1523 1522 1521 1521 1521 1521 1520 1520 1519 1519 1518 1518 1517 1516 1515 1514 1513 1512 1512 1512 1513 1514
1526 1528 1528 1528 1528 1528 1528 1527 1526 1525 1524 1523 1523 1522 1521 1521 1521 1520 1520 1519 1519 1518 1517 1517 1517 1517 1517 1516 1516 1515 1515 1514 1514 1513 1512 1511 1510 1509 1508 1508 1508 1508 1509
1522 1523 1523 1524 1523 1523 1522 1521 1520 1520 1519 1518 1517 1517 1516 1515 1515 1515 1515 1515 1514 1514 1513 1513 1513 1512 1513 1513 1512 1512 1511 1511 1510 1509 1508 1507 1506 1505 1505 1504 1504 1505 1505
1517 1518 1518 1518 1518 1517 1517 1516 1515 1514 1513 1512 1512 1511 1511 1510 1510 1510 1510 1510 1511 1510 1509 1509 1509 1509 1509 1509 1509 1509 1508 1507 1506 1505 1504 1503 1503 1502 1502 1501 1501 1501 1502
1512 1513 1514 1513 1513 1512 1511 1511 1510 1509 1508 1507 1507 1506 1505 1505 1505 1505 1505 1505 1506 1506 1505 1505 1505 1505 1506 1505 1505 1505 1504 1504 1503 1502 1501 1501 1500 1499 1499 1498 1498 1498 1499
1508 1509 1509 1508 1508 1507 1506 1505 1504 1504 1503 1502 1502 1501 1501 1500 1500 1500 1500 1500 1501 1501 1501 1501 1501 1502 1502 1502 1502 1501 1501 1500 1500 1499 1498 1498 1498 1497 1496 1496 1496 1497 1497
1504 1504 1504 1504 1503 1502 1501 1500 1499 1498 1498 1497 1497 1496 1496 1496 1496 1496 1496 1496 1496 1497 1497 1497 1497 1498 1498 1498 1498 1498 1497 1497 1497 1496 1496 1496 1495 1495 1495 1494 1495 1495 1496
1500 1500 1500 1499 1498 1497 1496 1495 1494 1494 1493 1493 1492 1492 1492 1492 1492 1492 1492 1492 1492 1492 1493 1493 1494 1494 1494 1494 1494 1494 1494 1494 1494 1493 1493 1493 1493 1493 1492 1492 1493 1493 1494
1495 1495 1495 1494 1493 1492 1491 1490 1489 1489 1488 1488 1488 1488 1488 1488 1488 1488 1488 1488 1488 1488 1489 1489 1490 1490 1490 1490 1491 1491 1491 1491 1491 1491 1490 1490 1490 1490 1490 1490 1490 1491 1491
1491 1491 1490 1489 1488 1487 1486 1485 1484 1484 1484 1484 1484 1484 1484 1484 1484 1484 1485 1485 1485 1485 1485 1486 1486 1486 1487 1487 1488 1488 1488 1488 1487 1487 1487 1487 1487 1487 1487 1487 1488 1488 1488
1487 1486 1485 1484 1483 1482 1481 1481 1480 1480 1480 1480 1480 1481 1481 1481 1481 1481 1482 1482 1482 1482 1482 1483 1483 1483 1484 1484 1484 1485 1485 1485 1485 1485 1485 1485 1485 1485 1485 1485 1485 1485 1485
1482 1482 1481 1480 1479 1478 1478 1477 1477 1477 1477 1477 1478 1478 1478 1478 1479 1479 1479 1479 1479 1479 1480 1480 1480 1481 1481 1481 1481 1482 1482 1482 1482 1482 1482 1482 1482 1482 1482 1482 1482 1482 1482
1478 1477 1477 1476 1475 1475 1474 1474 1474 1474 1474 1475 1475 1476 1476 1476 1476 1476 1476 1476 1476 1477 1477 1477 1478 1478 1478 1478 1479 1479 1479 1479 1479 1480 1480 1480 1480 1480 1480 1480 1479 1479 1480
1474 1473 1473 1472 1472 1472 1471 1471 1471 1471 1472 1472 1473 1473 1473 1474 1474 1474 1474 1474 1474 1474 1474 1475 1475 1475 1475 1476 1476 1477 1477 1477 1477 1478 1478 1478 1477 1477 1477 1477 1477 1477 1477
1469 1469 1469 1468 1468 1468 1468 1469 1469 1469 1469 1470 1470 1471 1471 1471 1472 1472 1472 1472 1472 1472 1473 1473 1473 1473 1473 1473 1474 1474 1475 1475 1475 1475 1475 1476 1475 1475 1475 1475 1475 1475 1475